x

Northern Hawaii One - 245nm Ne Of Honolulu Hi (51000) Wave Buoy

6:50pm - Wed 30th Jul 2014 All times are HST. -10 hours from GMT.

  • Sig Wave height 3.3ft
  • Peak Period 13s
  • Average Period 7s
  • Wind
    7mph, 9mph gusts
  • Sea Temp 76°f
  • Air Temp 72°f
  • Sea Pressure 1022.3mb
  • Northern Hawaii One - 245nm Ne Of Honolulu Hi
  • Northern Hawaii One - 245nm Ne Of Honolulu Hi

More Historic Weather Station data

Upgrade to MSW Pro to gain access to the past 30 days of data for over 8000 Wavebouys and Weather Stations around the globe.

Join Pro

Comparision Forecast

View Surf forecast
   
Wed 07/30 6:50pm 3.5ft 13s 7s 7 9 mph 1022.3mb 76f 72f
5:50pm 3.5ft 13s 7s 7 9 mph 1021.8mb 76f 73f
4:50pm 3ft 14s 7s 7 9 mph 1021.5mb 76f 73f
3:50pm 3.5ft 8s 7s 9 11 mph 1021.6mb 76f 73f
2:50pm 3ft 9s 7s 4 7 mph 1021.8mb 76f 73f
1:50pm 3ft 9s 6s 4 7 mph 1022.1mb 76f 72f
12:50pm 3.5ft 9s 6s 4 7 mph 1022.2mb 76f 72f
11:50am 3.5ft 8s 6s 4 7 mph 1022.4mb 75f 72f
10:50am 3.5ft 8s 6s 4 9 mph 1022.6mb 75f 72f
9:50am 3.5ft 9s 6s 7 9 mph 1022.8mb 75f 72f
8:50am 3.5ft 8s 6s 4 9 mph 1022.7mb 74f 72f
7:50am 3.5ft 14s 6s 7 9 mph 1022.5mb 74f 72f
6:50am 3.5ft 9s 6s 7 9 mph 1022.2mb 74f 72f
5:50am 3.5ft 10s 6s 9 11 mph 1021.9mb 74f 72f
4:50am 3.5ft 10s 7s 7 9 mph 1021.5mb 74f 71f
3:50am 3.5ft 8s 6s 7 9 mph 1021.5mb 74f 71f
2:50am 3.5ft 13s 6s 7 9 mph 1021.6mb 74f 71f
1:50am 3.5ft 8s 6s 7 9 mph 1021.5mb 74f 71f
12:50am 3.5ft 8s 6s 9 11 mph 1021.6mb 74f 71f
Tue 07/29 11:50pm 3ft 13s 6s 7 11 mph 1021.9mb 74f 71f
10:50pm 3.5ft 10s 6s 7 9 mph 1022.2mb 74f 72f
9:50pm 3.5ft 10s 7s 9 11 mph 1022.5mb 74f 72f
8:50pm 3.5ft 14s 6s 7 9 mph 1022.6mb 75f 72f
7:50pm 3.5ft 8s 6s 7 11 mph 1022.3mb 75f 72f
6:50pm 3.5ft 8s 6s 9
mph
1021.9mb 75f 72f
5:50pm 3.5ft 8s 6s 9 11 mph 1021.5mb 75f 72f
4:50pm 3.5ft 8s 6s 9 11 mph 1021.4mb 75f 73f
3:50pm 3.5ft 8s 6s 9 11 mph 1021.6mb 75f 73f
2:50pm 3.5ft 8s 6s 9 11 mph 1021.7mb 75f 72f
1:50pm 3.5ft 8s 6s 9 11 mph 1022mb 75f 72f
12:50pm 3.5ft 8s 6s 9 11 mph 1022.4mb 75f 72f
11:50am 3.5ft 8s 6s 7 11 mph 1022.7mb 75f 72f
10:50am 3.5ft 8s 6s 7 9 mph 1023.2mb 74f 72f
9:50am 3.5ft 8s 6s  -  mph 1023.4mb 74f 71f
8:50am 3.5ft 8s 6s 7 13 mph 1023.5mb 74f 69f
7:50am 3.5ft 8s 6s 7 9 mph 1023.2mb 74f 72f
6:50am 4ft 9s 6s 2 4 mph 1023.1mb 74f 71f
5:50am 3.5ft 8s 6s 9 16 mph 1022.6mb 74f 71f
4:50am 3.5ft 17s 6s  -  mph 1022.4mb 74f 70f
3:50am 3.5ft 8s 7s 7 11 mph 1021.9mb 74f 71f
2:50am 3.5ft 8s 6s 11 16 mph 1021.8mb 74f 71f
1:50am 3.5ft 8s 6s 4 7 mph 1022.1mb 74f 71f
12:50am 3.5ft 9s 7s 7 9 mph 1022.3mb 74f 71f
Mon 07/28 11:50pm 3.5ft 9s 6s 7 11 mph 1022.8mb 74f 71f
10:50pm 3.5ft 8s 6s 4 7 mph 1023mb 74f 71f
9:50pm  -   -   -  7 11 mph 1023.3mb 74f 72f
8:50pm 4ft 8s 6s 7 11 mph 1023.2mb 74f 72f
7:50pm 3.5ft 8s 6s 7 9 mph 1023.1mb 75f 72f
6:50pm 4.5ft 8s 6s 9 11 mph 1022.7mb 75f 72f
5:50pm 4ft 9s 6s 7 9 mph 1022.4mb 75f 72f
4:50pm 4ft 9s 6s 9 11 mph 1022.2mb 75f 72f
3:50pm 4ft 8s 6s 9 11 mph 1022.3mb 75f 73f
2:50pm 3.5ft 8s 6s 9 13 mph 1022.3mb 75f 73f
1:50pm 4ft 8s 7s 9 11 mph 1022.7mb 75f 72f
12:50pm 3.5ft 8s 7s 7 9 mph 1022.9mb 75f 72f
11:50am 4ft 8s 7s 7 9 mph 1023.1mb 75f 71f
10:50am 3.5ft 9s 6s 2 7 mph 1023.6mb 74f 72f
9:50am 4ft 9s 6s 9 13 mph 1023.8mb 74f 69f
8:50am 4ft 9s 6s 9 11 mph 1023.5mb 74f 72f
7:50am 4ft 9s 6s 7 9 mph 1023.7mb 74f 72f
6:50am 4ft 9s 6s 7 9 mph 1023.5mb 74f 72f
5:50am 4.5ft 9s 6s 7 9 mph 1023.2mb 74f 72f
4:50am 4.5ft 9s 6s 9 11 mph 1022.9mb 74f 72f
3:50am 4.5ft 8s 6s 7 9 mph 1022.6mb 74f 72f
2:50am 4.5ft 8s 6s 7 9 mph 1022.6mb 74f 72f
1:50am 4.5ft 9s 6s 9 11 mph 1022.5mb 74f 72f
12:50am 4.5ft 9s 6s 7 11 mph 1022.8mb 74f 72f
Sun 07/27 11:50pm 4.5ft 8s 7s 7 9 mph 1023mb 74f 72f
10:50pm 4ft 8s 7s 7 9 mph 1023.4mb 74f 72f
9:50pm 4.5ft 8s 7s 7 9 mph 1023.9mb 74f 72f
8:50pm 4.5ft 10s 7s 7 9 mph 1023.9mb 74f 71f
7:50pm 4ft 9s 7s 7 16 mph 1023.4mb 75f 72f
6:50pm 4.5ft 10s 6s 4 7 mph 1023mb 75f 73f
5:50pm 4.5ft 8s 6s 7 9 mph 1022.7mb 75f 73f
4:50pm 4.5ft 9s 6s 7 9 mph 1022.2mb 75f 73f
3:50pm 4ft 9s 6s 9 11 mph 1022.1mb 75f 73f
2:50pm 4ft 8s 6s 7 9 mph 1022.4mb 75f 72f
1:50pm 3.5ft 9s 6s 9 11 mph 1022.6mb 75f 73f
12:50pm 3.5ft 9s 6s 9 11 mph 1022.8mb 75f 73f
11:50am 4ft 9s 6s 7
mph
1022.9mb 74f 72f
10:50am 4ft 9s 6s 11 16 mph 1022.9mb 74f 72f
9:50am 4ft 9s 6s 9 11 mph 1023mb 74f 72f
8:50am 4ft 9s 6s 9 13 mph 1022.9mb 74f 72f
7:50am 4ft 10s 6s 9 11 mph 1022.8mb 74f 72f
6:50am 4ft 8s 6s 11 13 mph 1022.5mb 74f 72f
5:50am 4ft 10s 6s 7 9 mph 1022.1mb 74f 72f